"Pseudo-MPEC" for P113jxw

Created 2020 Aug 4 23:07:11 UT using Find_Orb

Click here for an explanation of pseudo-MPECs

 
 Astrometry: 
     P113jxw  C2020 07 29Y-Bbj)iTJuqjhH^)oGME`rQo9fAAstrometrysy)o;sx^N3yl!P_F51
     P113jxw  C2020 07 29qH,DGlMImCbredacted;35fG^\A6tI9.H+dI6I@^/,Z3%(VgouV6F51
     P113jxw  C2020 07 29BnL=*F@C.h)rl?A2W+clickQ=-eQfG-Sq\c-YWYP;Yhereq_h_h`F51
     P113jxw  C2020 07 29Qa\AI\(h3njtGaWdnju'@6for:7O(QqC\XYTwexplanationWY(FF51

Station data:
(F51) Pan-STARRS 1, Haleakala  (N20.707235 W156.255910)  US/Hawaii.
   Observers N. Primak, A. Schultz, S. Watters, J. Thiel, T. Goggia. Measurer
   PS1 Science Consortium. 1.8-m Ritchey-Chrétien + CCD.

Orbital elements:  P113jxw
   Perihelion 2020 Jun 11.779350 +/- 38.7 TT = 18:42:15 (JD 2459012.279350)
Epoch 2020 Jul 30.0 TT = JDT 2459060.5   Earth MOID: 0.0088   AutoNEOCP
M  38.11559838 +/- 17               (J2000 ecliptic)
n   0.79044140 +/- 0.363            Peri.  124.52286 +/- 60
a   1.15848280 +/- 0.355            Node   132.92234 +/- 46
e   0.1405612 +/- 0.253             Incl.    1.38853 +/- 3.6
P   1.25/455.43d           H 29.3   G  0.15   U 12.1  SR
q 0.99564501 +/- 0.172    Q 1.32132059 +/- 43.1
From 4 observations 2020 July 29 (41.8 min); mean residual 0".09
Residuals in arcseconds: 
200729 F51  .07-  .09-    200729 F51  .05-  .12+    
200729 F51  .14+  .07+    200729 F51  .01-  .11-    

Ephemerides (geocentric):
Date (UTC) HH   RA              Dec         delta   r     elong  mag " sig PA
---- -- -- --  -------------   -----------  ------ ------ -----  --- ---- ---
2020 08 04 23  21 01 15.236   -16 52 31.31  .03699 1.0514 179.8 22.4  47d 173
2020 08 05 00  21 01 24.562   -16 53 34.57  .03707 1.0515 179.9 22.4  47d 173
2020 08 05 01  21 01 33.848   -16 54 37.53  .03715 1.0516 179.9 22.4  47d 173
2020 08 05 02  21 01 43.093   -16 55 40.17  .03724 1.0516 179.9 22.4  48d 173
2020 08 05 03  21 01 52.298   -16 56 42.51  .03732 1.0517 179.9 22.4  48d 173
2020 08 05 04  21 02 01.464   -16 57 44.54  .03740 1.0518 179.9 22.4  48d 173
2020 08 05 05  21 02 10.590   -16 58 46.27  .03749 1.0519 179.9 22.4  48d 173
2020 08 05 06  21 02 19.677   -16 59 47.71  .03757 1.0519 179.9 22.4  48d 173
2020 08 05 07  21 02 28.724   -17 00 48.84  .03765 1.0520 179.8 22.5  48d 173
2020 08 05 08  21 02 37.733   -17 01 49.68  .03774 1.0521 179.8 22.5  48d 173
2020 08 05 09  21 02 46.703   -17 02 50.22  .03782 1.0522 179.8 22.5  48d 173
2020 08 05 10  21 02 55.635   -17 03 50.47  .03791 1.0523 179.8 22.5  48d 173
2020 08 05 11  21 03 04.528   -17 04 50.43  .03799 1.0523 179.8 22.5  49d 173
2020 08 05 12  21 03 13.383   -17 05 50.10  .03807 1.0524 179.7 22.5  49d 173
2020 08 05 13  21 03 22.201   -17 06 49.48  .03816 1.0525 179.7 22.4  49d 173
2020 08 05 14  21 03 30.981   -17 07 48.58  .03824 1.0526 179.7 22.4  49d 173
2020 08 05 15  21 03 39.723   -17 08 47.40  .03833 1.0526 179.7 22.5  49d 173
2020 08 05 16  21 03 48.428   -17 09 45.93  .03841 1.0527 179.6 22.5  49d 173
2020 08 05 17  21 03 57.097   -17 10 44.18  .03849 1.0528 179.6 22.5  49d 173
2020 08 05 18  21 04 05.728   -17 11 42.15  .03858 1.0529 179.6 22.5  49d 173
2020 08 05 19  21 04 14.323   -17 12 39.85  .03866 1.0530 179.5 22.5  50d 173
2020 08 05 20  21 04 22.882   -17 13 37.27  .03875 1.0530 179.5 22.5  50d 173
2020 08 05 21  21 04 31.404   -17 14 34.41  .03883 1.0531 179.5 22.5  50d 173
2020 08 05 22  21 04 39.891   -17 15 31.29  .03892 1.0532 179.5 22.5  50d 173
2020 08 05 23  21 04 48.341   -17 16 27.89  .03900 1.0533 179.4 22.5  50d 173
2020 08 06 00  21 04 56.756   -17 17 24.23  .03909 1.0534 179.4 22.5  50d 173
2020 08 06 01  21 05 05.136   -17 18 20.30  .03917 1.0534 179.4 22.5  50d 173
2020 08 06 02  21 05 13.481   -17 19 16.10  .03925 1.0535 179.4 22.5  50d 173
2020 08 06 03  21 05 21.790   -17 20 11.64  .03934 1.0536 179.3 22.6  50d 173
2020 08 06 04  21 05 30.065   -17 21 06.92  .03942 1.0537 179.3 22.6  51d 173
2020 08 06 05  21 05 38.305   -17 22 01.93  .03951 1.0537 179.3 22.6  51d 173
2020 08 06 06  21 05 46.511   -17 22 56.69  .03959 1.0538 179.3 22.6  51d 173
2020 08 06 07  21 05 54.682   -17 23 51.19  .03968 1.0539 179.2 22.6  51d 173
2020 08 06 08  21 06 02.820   -17 24 45.43  .03976 1.0540 179.2 22.6  51d 173
2020 08 06 09  21 06 10.923   -17 25 39.42  .03985 1.0541 179.2 22.6  51d 173
2020 08 06 10  21 06 18.993   -17 26 33.16  .03993 1.0541 179.1 22.6  51d 173
2020 08 06 11  21 06 27.030   -17 27 26.64  .04002 1.0542 179.1 22.6  51d 173
2020 08 06 12  21 06 35.033   -17 28 19.87  .04010 1.0543 179.1 22.6  51d 173
2020 08 06 13  21 06 43.003   -17 29 12.86  .04019 1.0544 179.1 22.6  51d 173
2020 08 06 14  21 06 50.940   -17 30 05.60  .04027 1.0545 179.0 22.6  52d 173
2020 08 06 15  21 06 58.844   -17 30 58.09  .04036 1.0545 179.0 22.6  52d 173
2020 08 06 16  21 07 06.716   -17 31 50.34  .04044 1.0546 179.0 22.6  52d 173
2020 08 06 17  21 07 14.555   -17 32 42.34  .04053 1.0547 179.0 22.7  52d 173
2020 08 06 18  21 07 22.362   -17 33 34.10  .04062 1.0548 178.9 22.7  52d 173
2020 08 06 19  21 07 30.137   -17 34 25.63  .04070 1.0548 178.9 22.7  52d 173
2020 08 06 20  21 07 37.880   -17 35 16.91  .04079 1.0549 178.9 22.7  52d 173
2020 08 06 21  21 07 45.591   -17 36 07.96  .04087 1.0550 178.9 22.7  52d 173
2020 08 06 22  21 07 53.271   -17 36 58.77  .04096 1.0551 178.8 22.7  52d 173